Terminal Aerodrome Forecast
Issued by NWS Oklahoma City, OK

Home | Current Version | Previous Version | Text Only | Print | Product List | Glossary On
Versions: 1 2 3 4 5 6 7 8 9 10 11 12 13 14 15 16 17 18 19 20 21 22 23
597
FTUS44 KOUN 101737
TAFOUN
TAF
KOUN 101737Z 1018/1118 22016G24KT P6SM SKC
     FM102300 26008KT P6SM SKC
     FM110700 35010KT P6SM FEW250=

USA.gov is the U.S. government's official web portal to all federal, state and local government web resources and services.